GTI931 PANC-KLAX

Flight info

Callsign GTI931
Flight time N/A
Altitude 35000
Route TED J804R SNOUT JOWEN KANUA B453 BOXER FOT OAK J1 AVE MUPTT IRNMN2
Aircraft B77L/H-SDE1E2E3FGHIJ2J3J4J5M1RWXY/LB1D1

Departure

Time N/A
Airport Ted Stevens Anchorage International Airport (PANC)

Arrival

Time 2026-04-25 22:38
Airport Los Angeles International Airport (KLAX)
Time Latitude Longitude Altitude Speed Heading
2026-04-25 22:19 34.49942 -119.10738 17579 ft 382 kts 150°
2026-04-25 22:19 34.47812 -119.08865 17108 ft 377 kts 150°
2026-04-25 22:20 34.45703 -119.07015 16633 ft 372 kts 150°
2026-04-25 22:20 34.43594 -119.05167 16169 ft 380 kts 149°
2026-04-25 22:20 34.41434 -119.03277 15719 ft 383 kts 149°
2026-04-25 22:20 34.39281 -119.01390 15248 ft 382 kts 149°
2026-04-25 22:21 34.37159 -118.99531 14768 ft 380 kts 149°
2026-04-25 22:21 34.35022 -118.97659 14276 ft 377 kts 149°
2026-04-25 22:21 34.32890 -118.95795 13780 ft 375 kts 149°
2026-04-25 22:21 34.30788 -118.93958 13291 ft 374 kts 148°
2026-04-25 22:22 34.28688 -118.92124 12815 ft 372 kts 148°
2026-04-25 22:22 34.26623 -118.90319 12608 ft 358 kts 148°
2026-04-25 22:22 34.24644 -118.88577 12522 ft 343 kts 147°
2026-04-25 22:22 34.22790 -118.86867 12420 ft 330 kts 147°
2026-04-25 22:23 34.21002 -118.85210 12297 ft 317 kts 147°
2026-04-25 22:23 34.19285 -118.83626 12183 ft 306 kts 147°
2026-04-25 22:23 34.17619 -118.82094 12057 ft 295 kts 148°
2026-04-25 22:23 34.16019 -118.80621 11927 ft 286 kts 146°
2026-04-25 22:24 34.14502 -118.78993 11669 ft 297 kts 142°
2026-04-25 22:24 34.12986 -118.77290 11346 ft 297 kts 142°
2026-04-25 22:24 34.11461 -118.75602 11036 ft 293 kts 142°
2026-04-25 22:24 34.09967 -118.73967 10767 ft 289 kts 142°
2026-04-25 22:25 34.08500 -118.72371 10488 ft 284 kts 142°
2026-04-25 22:25 34.07038 -118.70783 10234 ft 281 kts 142°
2026-04-25 22:25 34.05576 -118.69197 9958 ft 278 kts 142°
2026-04-25 22:25 34.04147 -118.67630 9603 ft 279 kts 138°
2026-04-25 22:26 34.03108 -118.65651 9225 ft 286 kts 111°
2026-04-25 22:26 34.02687 -118.63326 8941 ft 286 kts 101°
2026-04-25 22:26 34.02445 -118.60944 8665 ft 284 kts 99°
2026-04-25 22:26 34.02227 -118.58574 8385 ft 285 kts 98°
2026-04-25 22:27 34.02006 -118.56206 8093 ft 283 kts 98°
2026-04-25 22:27 34.01786 -118.53865 7821 ft 281 kts 98°
2026-04-25 22:27 34.01569 -118.51553 7597 ft 276 kts 98°
2026-04-25 22:27 34.01356 -118.49287 7374 ft 271 kts 98°
2026-04-25 22:28 34.01143 -118.47027 7146 ft 267 kts 97°
2026-04-25 22:28 34.01193 -118.44816 6917 ft 264 kts 82°
2026-04-25 22:28 34.01530 -118.42670 6683 ft 260 kts 78°
2026-04-25 22:28 34.01900 -118.40560 6468 ft 252 kts 78°
2026-04-25 22:29 34.02254 -118.38528 6289 ft 242 kts 78°
2026-04-25 22:29 34.02597 -118.36541 6155 ft 243 kts 78°
2026-04-25 22:29 34.02900 -118.34554 6019 ft 235 kts 84°
2026-04-25 22:30 34.03255 -118.30621 6005 ft 236 kts 84°
2026-04-25 22:30 34.03456 -118.28648 5880 ft 240 kts 83°
2026-04-25 22:30 34.03677 -118.26664 5590 ft 238 kts 83°
2026-04-25 22:30 34.03825 -118.25337 5390 ft 236 kts 83°
2026-04-25 22:31 34.04111 -118.22748 5041 ft 231 kts 83°
2026-04-25 22:31 34.04323 -118.20824 5003 ft 233 kts 84°
2026-04-25 22:31 34.04536 -118.18878 4967 ft 235 kts 84°
2026-04-25 22:31 34.04748 -118.16927 4689 ft 235 kts 85°
2026-04-25 22:32 34.04548 -118.15015 4382 ft 228 kts 116°
2026-04-25 22:32 34.03563 -118.13587 4076 ft 220 kts 147°
2026-04-25 22:32 34.02281 -118.12632 3773 ft 218 kts 151°
2026-04-25 22:32 34.00946 -118.11738 3439 ft 216 kts 162°
2026-04-25 22:33 33.99489 -118.11623 3112 ft 209 kts 196°
2026-04-25 22:33 33.98328 -118.12521 2999 ft 195 kts 228°
2026-04-25 22:33 33.97478 -118.13783 3004 ft 192 kts 231°
2026-04-25 22:33 33.96654 -118.15037 3004 ft 190 kts 232°
2026-04-25 22:34 33.96021 -118.16430 2999 ft 191 kts 251°
2026-04-25 22:34 33.95761 -118.17997 3008 ft 192 kts 261°
2026-04-25 22:34 33.95610 -118.19609 3010 ft 192 kts 263°
2026-04-25 22:34 33.95464 -118.21211 2857 ft 196 kts 262°
2026-04-25 22:35 33.95307 -118.22826 2608 ft 192 kts 262°
2026-04-25 22:35 33.95150 -118.24412 2362 ft 188 kts 261°
2026-04-25 22:35 33.94990 -118.25990 2123 ft 190 kts 261°
2026-04-25 22:35 33.94836 -118.27518 1874 ft 179 kts 261°
2026-04-25 22:36 33.94693 -118.28934 1658 ft 161 kts 261°
2026-04-25 22:36 33.94563 -118.30220 1454 ft 148 kts 260°
2026-04-25 22:36 33.94437 -118.31431 1263 ft 144 kts 261°
2026-04-25 22:36 33.94316 -118.32629 1071 ft 142 kts 260°
2026-04-25 22:37 33.94194 -118.33813 879 ft 142 kts 261°
2026-04-25 22:37 33.94074 -118.34985 684 ft 142 kts 260°
2026-04-25 22:37 33.93955 -118.36156 492 ft 141 kts 260°
2026-04-25 22:37 33.93830 -118.37332 293 ft 140 kts 258°
2026-04-25 22:38 33.93718 -118.38487 144 ft 138 kts 259°
2026-04-25 22:38 33.93603 -118.39531 119 ft 107 kts 263°
2026-04-25 22:38 33.93534 -118.40242 128 ft 65 kts 262°
2026-04-25 22:38 33.93496 -118.40588 132 ft 21 kts 262°
2026-04-25 22:39 33.93490 -118.40640 133 ft 0 kts 262°
2026-04-25 22:39 33.93477 -118.40696 133 ft 7 kts 244°
2026-04-25 22:39 33.93439 -118.40733 133 ft 7 kts 193°
2026-04-25 22:39 33.93393 -118.40718 133 ft 7 kts 136°
2026-04-25 22:40 33.93375 -118.40662 133 ft 8 kts 95°
2026-04-25 22:40 33.93378 -118.40577 132 ft 11 kts 85°
2026-04-25 22:40 33.93389 -118.40477 131 ft 12 kts 82°
2026-04-25 22:40 33.93400 -118.40367 130 ft 13 kts 83°
2026-04-25 22:41 33.93412 -118.40248 128 ft 14 kts 83°
2026-04-25 22:41 33.93425 -118.40121 126 ft 15 kts 83°
2026-04-25 22:41 33.93439 -118.39988 125 ft 16 kts 83°
2026-04-25 22:41 33.93453 -118.39845 123 ft 17 kts 84°
2026-04-25 22:42 33.93468 -118.39701 121 ft 17 kts 83°
2026-04-25 22:42 33.93484 -118.39548 119 ft 18 kts 83°
2026-04-25 22:42 33.93500 -118.39391 117 ft 18 kts 83°
2026-04-25 22:42 33.93515 -118.39236 116 ft 18 kts 83°
2026-04-25 22:43 33.93531 -118.39080 115 ft 18 kts 83°
2026-04-25 22:43 33.93546 -118.38924 114 ft 18 kts 84°
2026-04-25 22:43 33.93560 -118.38769 113 ft 18 kts 84°
2026-04-25 22:43 33.93574 -118.38619 112 ft 15 kts 84°
2026-04-25 22:44 33.93578 -118.38562 112 ft 5 kts 85°
2026-04-25 22:44 33.93571 -118.38531 112 ft 3 kts 127°
2026-04-25 22:44 33.93549 -118.38517 111 ft 3 kts 173°
2026-04-25 22:44 33.93521 -118.38515 111 ft 4 kts 180°
2026-04-25 22:45 33.93489 -118.38515 112 ft 4 kts 180°
2026-04-25 22:45 33.93454 -118.38514 112 ft 5 kts 180°
2026-04-25 22:45 33.93420 -118.38514 112 ft 3 kts 180°
2026-04-25 22:45 33.93393 -118.38519 112 ft 2 kts 212°
2026-04-25 22:46 33.93387 -118.38538 112 ft 2 kts 269°
2026-04-25 22:46 33.93387 -118.38560 112 ft 4 kts 270°
2026-04-25 22:46 33.93387 -118.38583 112 ft 1 kts 270°
2026-04-25 22:46 33.93387 -118.38588 112 ft 0 kts 270°